Showing default

SHIYAN-33, 68405

Orbit data source: Space-Track

SHIYAN-33, 68405 is a payload satellite owned by Zhongguo Xingwang (CN) in SSO that was launched on Fri, 27 Mar 2026 UTC via a CHANG ZHENG 2C/YZ-1S launch vehicle from the Jiuquan Satellite Launch Center, China (JSC). Payload-class satellites include a variety of spacecraft equipped with specific instruments for various scientific and technological missions. These include communications satellites like Starlink; space stations such as the ISS; scientific satellites like the Hubble; Earth observation satellites from companies like Planet Labs, Umbra, and HawkEye 360; GPS; miniature CubeSats for education and research; and military/defense satellites.

Loading next visibility...
Identifier
68405, 2026-064A
Orbit
SSO
Country
Flag of CNCN / PRC
Related business
Manufacturer
CAST
Mission
Operational spacecraft
Bus & Motor
Unknown
Mass
~2,500 kg wet, ~2,200 kg dry
Launch date (UTC)
2026-03-27 (2 weeks ago)
Launch vehicle
CHANG ZHENG 2C/YZ-1S
Launch site
Jiuquan Satellite Launch Center, China (JSC)
Object type
Payload
Rocket body
Debris
Shape & HBR
Unknown
Radar Cross Section
RCS unknown

Expand to show TLE details & history
Last TLE update: 8 hours ago

TLE from 8 hours ago
0 SHIYAN-33
1 68405U 26064A   26102.24687884  .00003529  00000-0  15132-3 0  9993
2 68405  97.4647 178.1109 0014463 172.2826 187.8636 15.23315935  2452
Epoch: 2026-04-12T05:55Z
TLE epoch observation values (Epoch: 2026-04-12T05:55:30.331Z)
Latitude
-0.00005°
Longitude
-111.22005°
Altitude
508.791 km
Speed
7.604 km/s
True Right ascension
11h 52m 26s
True Declination
0° 00' 00"
Sunlit
Object was in full shadow at epoch
Visualization orbit readout
Latitude
Unknown
Longitude
Unknown
Altitude
Unknown
Speed
Unknown
Apparent Right ascension
Unknown
Apparent Declination
Unknown
Sunlit
N/A
Visualization observer readout
Local Sidereal Time
20:44:07
Azimuth
Unknown
Elevation
Unknown
Doppler factor
Unknown
Orbital elements
Apogee altitude
502.748 km
Perigee altitude
482.873 km
Semi-major axis
6,870.948 km
Eccentricity
0.00145
Inclination
97.4647°
RAAN
178.1109°
Arg. of periapsis
172.2826°
True anomaly
187.84097°
Mean anomaly
187.8636°
Eccentric anomaly
187.85228°
Mean motion
3.81082 °/min
Orbital period
94.47 mins
BSTAR
0.00015132
Loading maneuver chart data...
Computing Atmospheric mass density...
Loading historical data...
Loading historical data...
Loading historical data...
Loading historical data...
Loading historical data...
Loading historical data...
Loading historical data...
Other satellites on launch #64 in the year 2026 (2026-03-27 UTC)

Documentation

Showing up to 5 results
|